STARLINK-34316, 64707

Orbit data source: Space-Track

STARLINK-34316, 64707 is a payload satellite owned by SpaceX/Seattle (US) in LEO that was launched on Sat, 28 Jun 2025 UTC via an FALCON 9 launch vehicle from the Air Force Western Test Range (AFWTR). Payload-class satellites include a variety of spacecraft equipped with specific instruments for various scientific and technological missions. These include communications satellites like Starlink; space stations such as the ISS; scientific satellites like the Hubble; Earth observation satellites from companies like Planet Labs, Umbra, and HawkEye 360; GPS; miniature CubeSats for education and research; and military/defense satellites.

Loading next visibility...
Identifier
64707, 2025-142M
Orbit
LEO
Country
Flag of USUS
Related business
Manufacturer
SpaceX/Seattle
Mission
Operational Commercial Communications
Bus & Motor
STARLINK V2MO, Unknown motor
Mass
575 kg wet, ~530 kg dry
Launch date (UTC)
2025-06-28 (2 months ago)
Launch vehicle
FALCON 9
Launch site
Air Force Western Test Range (AFWTR)
Object type
Payload
Rocket body
Debris
Shape & HBR
Box + 1 Pan, 14.5 m
Radar Cross Section
41.120 m², Large (>1 m²)

Expand to show TLE details & history
Last TLE update: 1 day ago

TLE from 1 day ago
0 STARLINK-34316
1 64707U 25142M   25241.93518282  .00051883  00000-0  11798-2 0  9993
2 64707  70.0004  80.0987 0003329 266.6185  93.4616 15.42721158 10871
Epoch: 2025-08-29T22:26Z
TLE epoch observation values (Epoch: 2025-08-29T22:26:39.795Z)
Latitude
-0.00004°
Longitude
125.05617°
Altitude
440.692 km
Speed
7.648 km/s
True Right ascension
05h 20m 23s
True Declination
0° 00' 00"
Sunlit
Object was in daylight at epoch
Visualization orbit readout
Latitude
Unknown
Longitude
Unknown
Altitude
Unknown
Speed
Unknown
Apparent Right ascension
Unknown
Apparent Declination
Unknown
Sunlit
N/A
Visualization observer readout
Local Sidereal Time
16:46:22
Azimuth
Unknown
Elevation
Unknown
Doppler factor
Unknown
Orbital elements
Apogee altitude
438.258 km
Perigee altitude
433.722 km
Semi-major axis
6,814.127 km
Eccentricity
0.00033
Inclination
70.0004°
RAAN
80.0987°
Arg. of periapsis
266.6185°
True anomaly
93.49968°
Mean anomaly
93.4616°
Eccentric anomaly
93.48064°
Mean motion
3.85858 °/min
Orbital period
93.3 mins
BSTAR
0.0011798
Loading maneuver chart data...
Computing Atmospheric mass density...
Loading historical data...
Loading historical data...
Loading historical data...
Loading historical data...
Loading historical data...
Loading historical data...
Loading historical data...

Documentation

Showing up to 5 results
|